Powrót do katalogu

NATO 2B

AktywnyMilitariaGEO
NORAD 4902·PAYLOAD· XX

Wystrzelony Feb 3, 1971 z Cape Canaveral Space Force Station

Loading…

Następne Przeloty

TLE

Source: Space-Track
1 04902U 71009A   26228.49345925 -.00000099  00000-0  00000-0 0  9992
2 04902   1.0120 241.6334 0003471 264.7977 251.3407  1.00271669119242

Śledź NATO 2B w czasie rzeczywistym z AllMySat

Download on the App Store